Starlink 6147

operational
NORAD ID: 57120 Int'l Des: 2023-090 Owner: SPXS Country: US Constellation: starlink
LEOCIRCULAR

Über Starlink 6147

Beschreibung wird geladen...

Live-Position

3D-Globus wird geladen...

Nächste Überflüge

Höhenverlauf

Altitude vs Time

uPlot chart will show altitude changes over time

Zweizeiliger Elementsatz

1 57120U 23090V 25353.31257634 .00002678 00000-0 21310-3 0 9991
2 57120 43.0036 351.3059 0000999 132.3436 227.7491 15.02562147138320
Epoch: 19. Dez. 2025 • Age: 5 hours

Aktueller Status

Höhe 560.7 km
Geschwindigkeit 7.58 km/s
Subsatellitenpunkt -7.93°S, 69.79°E
Startdatum 23. Juni 2023
Alter 2.4 years
Typ internet

Technische Details

Klassifizierung Payload
Masse 305.00 kg
Trockenmasse 290.00 kg
Gesamtmasse 305.00 kg
Länge 0.20 m
Durchmesser 2.80 m
Spannweite 9.00 m
Form Box + pan
Hersteller SPXS
Bus-Typ Starlink
Phasenstatus In Orbit
Besitzer/Staat SPXS/US

Große Konstellationen

Loading constellations...